STARLINK-35296

Last updated on Mon Oct 20 2025 00:02:07 GMT+0000 (Coordinated Universal Time)

1 65801U 25218L 25292.26294579 .00051576 00000+0 94295-3 0 9997 2 65801 97.6026 152.8390 0001508 93.3265 266.8158 15.49214502 3644
UTC large
Height (km)
Speed (km/s)
/
Latitude / Longitude
Inclination (degrees)
Orbital Period (minutes)
Azimuth
Elevation
Range (km)
Doppler Factor

Next 0 passes for location: London (51.5072 / 0.1276)

Sorry there are no passes over London.